EW4964 Weather Reports


Display with metric or nautical units.
time (UTC)temp
F
wind
direction
speed
MPH
gust
MPH
rain 1hr
in
rain 24hr
in
rain mn
in
humidity
%
barometer
mb
20260906181507 54 22 1.0 2.0 0.00 0.00 0.00 32 1024.9
20260906180008 54 1 0.0 2.0 0.00 0.00 0.00 32 1024.7
20260906171506 57 11 1.0 4.0 0.00 0.00 0.00 31 1024.6
20260906170010 58 358 2.0 7.0 0.00 0.00 0.00 31 1024.5
20260906164507 59 340 2.0 5.0 0.00 0.00 0.00 29 1024.6
20260906163007 60 5 4.0 9.0 0.00 0.00 0.00 29 1024.4
20260906161506 63 357 3.0 8.0 0.00 0.00 0.00 24 1024.6
20260906160007 66 342 2.0 7.0 0.00 0.00 0.00 24 1024.6
20260906154507 68 3 3.0 7.0 0.00 0.00 0.00 23 1024.7
20260906153006 67 19 3.0 6.0 0.00 0.00 0.00 23 1024.4
20260906151507 66 1 4.0 8.0 0.00 0.00 0.00 24 1024.6
20260906150007 66 11 4.0 11.0 0.00 0.00 0.00 24 1024.6
20260906144507 65 330 4.0 9.0 0.00 0.00 0.00 24 1024.3
20260906141506 65 339 4.0 9.0 0.00 0.00 0.00 24 1024.5
20260906140007 65 18 5.0 10.0 0.00 0.00 0.00 24 1024.2
20260906134506 65 330 4.0 8.0 0.00 0.00 0.00 24 1024.3
20260906130006 63 28 5.0 16.0 0.00 0.00 0.00 24 1024.5
20260906123006 63 20 5.0 14.0 0.00 0.00 0.00 24 1024.5
20260906121506 62 10 5.0 13.0 0.00 0.00 0.00 25 1024.6
20260906120007 62 353 6.0 13.0 0.00 0.00 0.00 24 1024.8
20260906114506 61 8 5.0 9.0 0.00 0.00 0.00 27 1024.6
20260906113006 62 65 3.0 8.0 0.00 0.00 0.00 24 1024.6
20260906111506 61 353 5.0 12.0 0.00 0.00 0.00 31 1024.5
20260906104505 59 298 4.0 11.0 0.00 0.00 0.00 31 1024.7
20260906103006 59 354 5.0 13.0 0.00 0.00 0.00 31 1024.6
20260906101506 59 345 5.0 11.0 0.00 0.00 0.00 31 1024.8
20260906100005 60 302 4.0 10.0 0.00 0.00 0.00 31 1024.6
20260906094506 57 338 4.0 10.0 0.00 0.00 0.00 31 1024.6
20260906093005 57 16 7.0 19.0 0.00 0.00 0.00 31 1024.7
20260906091506 57 183 4.0 11.0 0.00 0.00 0.00 31 1024.7
20260906090006 56 343 4.0 8.0 0.00 0.00 0.00 32 1024.5
20260906084506 56 20 6.0 12.0 0.00 0.00 0.00 32 1024.6
20260906083005 56 6 4.0 9.0 0.00 0.01 0.00 33 1024.4
20260906081506 55 316 6.0 15.0 0.00 0.01 0.00 34 1024.2
20260906074505 54 356 3.0 7.0 0.00 0.01 0.00 38 1024.1
20260906071506 52 337 5.0 12.0 0.00 0.01 0.00 44 1023.6
20260906070005 52 314 4.0 9.0 0.00 0.01 0.00 46 1023.6
20260906064506 51 343 5.0 14.0 0.00 0.01 0.00 49 1023.4
20260906063005 51 355 4.0 8.0 0.00 0.01 0.00 51 1023.5
20260906061505 50 325 6.0 14.0 0.00 0.01 0.00 51 1023.4
20260906060005 50 357 4.0 8.0 0.00 0.01 0.00 51 1023.2
20260906050005 49 325 3.0 8.0 0.00 0.06 0.00 53 1022.6
20260906044505 49 347 2.0 8.0 0.00 0.08 0.00 53 1022.4
20260906043006 49 353 2.0 7.0 0.00 0.09 0.00 53 1022.1
20260906040005 49 298 3.0 6.0 0.00 0.09 0.00 53 1022.1
20260906033005 49 303 2.0 5.0 0.00 0.11 0.00 51 1021.7
20260906031505 49 312 2.0 5.0 0.00 0.11 0.00 51 1021.8
20260906030004 49 350 2.0 7.0 0.00 0.12 0.00 50 1021.7
20260906024505 49 328 2.0 5.0 0.00 0.12 0.00 49 1021.7
20260906023005 49 279 2.0 4.0 0.00 0.13 0.00 48 1021.6
20260906021504 49 283 1.0 4.0 0.00 0.13 0.00 47 1021.6
20260906020004 49 281 1.0 3.0 0.00 0.13 0.00 46 1021.6
20260906013004 50 335 1.0 3.0 0.00 0.13 0.00 45 1021.6
20260906011504 51 320 3.0 6.0 0.00 0.13 0.00 45 1021.2
20260906010005 51 348 2.0 5.0 0.00 0.13 0.00 44 1021.1
20260906004529 51 341 3.0 9.0 0.00 0.13 0.00 43 1021.2
20260906000008 52 1 4.0 7.0 0.00 0.13 0.00 42 1021.0
20260905234507 52 5 4.0 6.0 0.00 0.13 0.00 41 1021.0
20260905233008 53 5 3.0 7.0 0.00 0.13 0.00 41 1021.1
20260905230007 53 355 4.0 7.0 0.00 0.13 0.00 37 1020.8
20260905224507 53 314 3.0 5.0 0.00 0.13 0.00 36 1020.7
20260905221508 54 7 5.0 8.0 0.00 0.13 0.00 35 1020.7
20260905220010 54 345 4.0 8.0 0.00 0.13 0.00 35 1020.7
20260905213007 55 20 4.0 9.0 0.00 0.13 0.13 34 1020.4
20260905211508 55 6 4.0 11.0 0.00 0.13 0.13 33 1020.1
20260905210008 55 301 4.0 11.0 0.00 0.13 0.13 33 1020.2
20260905204508 55 329 4.0 13.0 0.00 0.13 0.13 33 1020.1
20260905203008 56 326 3.0 9.0 0.00 0.13 0.13 34 1020.0
20260905201507 56 288 3.0 6.0 0.00 0.13 0.13 34 1019.9
20260905200007 56 279 2.0 5.0 0.00 0.13 0.13 34 1019.7
20260905194507 56 327 3.0 8.0 0.00 0.13 0.13 33 1019.7
20260905193007 56 330 3.0 8.0 0.00 0.13 0.13 33 1019.4
20260905191507 57 357 3.0 5.0 0.00 0.13 0.13 34 1019.7
20260905183007 57 357 3.0 8.0 0.00 0.13 0.13 34 1018.9